FW3211 Weather Reports


Display with metric or nautical units.
time (UTC)temp
F
wind
direction
speed
MPH
gust
MPH
rain 1hr
in
rain 24hr
in
rain mn
in
humidity
%
barometer
mb
20260503004933 58 342 2.0 3.0 0.00 0.00 0.00 52 1021.8
20260503004432 58 335 2.0 3.0 0.00 0.00 0.00 53 1022.0
20260503003935 58 335 2.0 3.0 0.00 0.00 0.00 53 1022.0
20260503003713 58 335 2.0 3.0 0.00 0.00 0.00 53 1022.1
20260503002932 58 335 1.0 3.0 0.00 0.00 0.00 52 1022.1
20260503002432 58 354 1.0 2.0 0.00 0.00 0.00 52 1022.1
20260503001933 58 354 2.0 3.0 0.00 0.00 0.00 50 1022.2
20260503001434 58 314 2.0 3.0 0.00 0.00 0.00 51 1022.2
20260503001217 58 314 2.0 3.0 0.00 0.00 0.00 49 1022.2
20260503000434 58 314 1.0 3.0 0.00 0.00 0.00 49 1022.3
20260502235938 58 314 1.0 3.0 0.00 0.00 0.00 49 1022.2
20260502235437 59 314 2.0 3.0 0.00 0.00 0.00 52 1022.3
20260502235009 59 308 2.0 3.0 0.00 0.00 0.00 48 1022.3
20260502234952 59 308 2.0 3.0 0.00 0.00 0.00 50 1022.3
20260502233935 58 305 1.0 2.0 0.00 0.00 0.00 47 1022.4
20260502233717 58 305 1.0 3.0 0.00 0.00 0.00 47 1022.4
20260502232937 58 305 1.0 3.0 0.00 0.00 0.00 47 1022.4
20260502232435 58 305 1.0 3.0 0.00 0.00 0.00 49 1022.4
20260502231938 58 342 1.0 2.0 0.00 0.00 0.00 49 1022.5
20260502231434 58 340 1.0 2.0 0.00 0.00 0.00 50 1022.5
20260502230935 58 340 1.0 2.0 0.00 0.00 0.00 52 1022.5
20260502230428 58 340 1.0 2.0 0.00 0.00 0.00 53 1022.6
20260502225929 58 340 1.0 2.0 0.00 0.00 0.00 56 1022.6
20260502225426 58 340 1.0 2.0 0.00 0.00 0.00 56 1022.7
20260502224925 58 340 1.0 2.0 0.00 0.00 0.00 55 1022.8
20260502224714 58 340 1.0 3.0 0.00 0.00 0.00 56 1022.8
20260502223925 57 340 1.0 3.0 0.00 0.00 0.00 56 1022.8
20260502223423 57 340 1.0 2.0 0.00 0.00 0.00 58 1022.8
20260502222921 57 340 1.0 2.0 0.00 0.00 0.00 58 1022.9
20260502222419 58 340 1.0 3.0 0.00 0.00 0.00 58 1023.0
20260502221919 58 340 2.0 3.0 0.00 0.00 0.00 57 1023.1
20260502221708 58 307 2.0 3.0 0.00 0.00 0.00 57 1023.1
20260502220917 58 307 1.0 3.0 0.00 0.00 0.00 56 1023.1
20260502220421 58 4 1.0 3.0 0.00 0.00 0.00 57 1023.0
20260502215918 58 4 1.0 3.0 0.00 0.00 0.00 57 1023.1
20260502215704 58 4 1.0 3.0 0.00 0.00 0.00 57 1023.1
20260502214914 58 4 1.0 2.0 0.00 0.00 0.00 58 1023.1
20260502214414 58 4 1.0 3.0 0.00 0.00 0.00 58 1023.1
20260502213912 58 4 2.0 3.0 0.00 0.00 0.00 58 1023.1
20260502213442 58 328 2.0 3.0 0.00 0.00 0.00 58 1023.1
20260502213428 58 4 1.0 3.0 0.00 0.00 0.00 56 1023.1
20260502212408 58 328 2.0 3.0 0.00 0.00 0.00 56 1023.1
20260502211909 58 304 2.0 3.0 0.00 0.00 0.00 56 1023.1
20260502211410 58 291 1.0 3.0 0.00 0.00 0.00 58 1023.1
20260502210909 58 291 1.0 3.0 0.00 0.00 0.00 58 1023.1
20260502210407 57 291 1.0 3.0 0.00 0.00 0.00 57 1023.1
20260502205907 57 283 2.0 3.0 0.00 0.00 0.00 57 1023.1
20260502205405 57 283 2.0 3.0 0.00 0.00 0.00 59 1023.2
20260502204904 58 283 2.0 3.0 0.00 0.00 0.00 57 1023.2
20260502204411 58 283 2.0 4.0 0.00 0.00 0.00 58 1023.2
20260502203906 58 274 2.0 4.0 0.00 0.00 0.00 55 1023.2
20260502203408 58 272 2.0 4.0 0.00 0.00 0.00 54 1023.3
20260502202906 58 264 2.0 4.0 0.00 0.00 0.00 54 1023.3
20260502202406 59 333 2.0 4.0 0.00 0.00 0.00 55 1023.3
20260502202205 59 242 2.0 5.0 0.00 0.00 0.00 53 1023.3
20260502201404 58 285 2.0 5.0 0.00 0.00 0.00 55 1023.2
20260502200905 58 263 2.0 6.0 0.00 0.00 0.00 55 1023.2
20260502200405 57 238 2.0 6.0 0.00 0.00 0.00 57 1023.2
20260502195912 57 335 2.0 2.0 0.00 0.00 0.00 59 1023.1
20260502195406 57 335 2.0 3.0 0.00 0.00 0.00 59 1023.1
20260502194953 57 335 2.0 3.0 0.00 0.00 0.00 59 1023.1
20260502194940 57 335 2.0 3.0 0.00 0.00 0.00 57 1023.1
20260502193905 57 348 2.0 2.0 0.00 0.00 0.00 59 1023.1
20260502193406 57 348 1.0 2.0 0.00 0.00 0.00 58 1023.2
20260502192904 57 348 1.0 2.0 0.00 0.00 0.00 58 1023.1
20260502192404 57 348 1.0 2.0 0.00 0.00 0.00 59 1023.1
20260502191907 57 348 1.0 2.0 0.00 0.00 0.00 58 1023.1
20260502191403 57 348 1.0 2.0 0.00 0.00 0.00 59 1023.1
20260502190904 58 348 2.0 3.0 0.00 0.00 0.00 58 1023.1
20260502190650 58 348 2.0 3.0 0.00 0.00 0.00 58 1023.1
20260502185903 58 348 1.0 2.0 0.00 0.00 0.00 58 1023.1
20260502185404 58 348 1.0 3.0 0.00 0.00 0.00 57 1023.0
20260502184907 58 348 1.0 3.0 0.00 0.00 0.00 58 1023.0
20260502184406 58 347 1.0 3.0 0.00 0.00 0.00 57 1023.0
20260502183906 59 347 1.0 2.0 0.00 0.00 0.00 57 1023.0
20260502183406 59 347 1.0 2.0 0.00 0.00 0.00 58 1023.0
20260502182907 59 347 2.0 3.0 0.00 0.00 0.00 59 1023.0
20260502182405 59 347 2.0 3.0 0.00 0.00 0.00 59 1023.0
20260502181854 59 345 2.0 3.0 0.00 0.00 0.00 58 1023.0
20260502181348 59 316 2.0 3.0 0.00 0.00 0.00 57 1022.9
20260502180843 59 312 2.0 4.0 0.00 0.00 0.00 56 1023.0
20260502180332 59 284 2.0 4.0 0.00 0.00 0.00 55 1023.0
20260502164318 62 343 2.0 5.0 0.00 0.00 0.00 51 1023.0
20260502163316 62 308 2.0 6.0 0.00 0.00 0.00 49 1023.2
20260502162816 62 65 2.0 5.0 0.00 0.00 0.00 50 1023.2
20260502162317 62 20 2.0 4.0 0.00 0.00 0.00 50 1023.2
20260502161814 62 12 2.0 6.0 0.00 0.00 0.00 50 1023.3
20260502161312 62 60 2.0 6.0 0.00 0.00 0.00 48 1023.3
20260502160811 62 287 2.0 4.0 0.00 0.00 0.00 50 1023.3
20260502160309 62 316 2.0 4.0 0.00 0.00 0.00 49 1023.4
20260502152307 64 79 1.0 5.0 0.00 0.00 0.00 46 1023.7
20260502151806 64 85 2.0 5.0 0.00 0.00 0.00 45 1023.7
20260502151622 64 68 1.0 4.0 0.00 0.00 0.00 45 1023.8
20260502150808 64 161 1.0 4.0 0.00 0.00 0.00 47 1023.8
20260502150311 65 162 2.0 6.0 0.00 0.00 0.00 47 1023.9
20260502130303 66 217 5.0 11.0 0.00 0.00 0.00 44 1025.0
20260502123803 67 209 4.0 9.0 0.00 0.00 0.00 43 1025.2
20260502123306 67 179 4.0 9.0 0.00 0.00 0.00 43 1025.2
20260502122805 67 158 4.0 9.0 0.00 0.00 0.00 43 1025.3
20260502122306 67 111 4.0 10.0 0.00 0.00 0.00 42 1025.3
20260502121806 67 200 4.0 10.0 0.00 0.00 0.00 42 1025.4
20260502121303 67 113 4.0 9.0 0.00 0.00 0.00 42 1025.3
20260502121108 66 163 4.0 9.0 0.00 0.00 0.00 43 1025.4
20260502120545 66 79 4.0 8.0 0.00 0.00 0.00 43 1025.4
20260502115807 66 135 3.0 8.0 0.00 0.00 0.00 42 1025.5
20260502115306 66 120 4.0 10.0 0.00 0.00 0.00 42 1025.5
20260502114803 66 73 4.0 10.0 0.00 0.00 0.00 43 1025.5
20260502114559 66 117 5.0 12.0 0.00 0.00 0.00 42 1025.6
20260502113804 66 112 6.0 12.0 0.00 0.00 0.00 42 1025.7
20260502113307 65 148 6.0 13.0 0.00 0.00 0.00 41 1025.6
20260502113045 66 190 6.0 13.0 0.00 0.00 0.00 42 1025.8
20260502112305 66 204 5.0 12.0 0.00 0.00 0.00 42 1025.8
20260502111804 67 157 4.0 10.0 0.00 0.00 0.00 41 1025.9
20260502111303 67 183 4.0 10.0 0.00 0.00 0.00 41 1025.9
20260502110800 67 121 4.0 10.0 0.00 0.00 0.00 41 1026.0
20260502110300 67 166 3.0 9.0 0.00 0.00 0.00 41 1026.0
20260502105800 67 109 3.0 9.0 0.00 0.00 0.00 40 1026.1
20260502105300 67 200 4.0 9.0 0.00 0.00 0.00 40 1026.2
20260502104803 66 109 4.0 9.0 0.00 0.00 0.00 40 1026.3
20260502104300 66 34 3.0 9.0 0.00 0.00 0.00 41 1026.3
20260502103800 66 83 3.0 9.0 0.00 0.00 0.00 40 1026.4
20260502103301 66 81 3.0 10.0 0.00 0.00 0.00 39 1026.5
20260502102756 66 108 3.0 10.0 0.00 0.00 0.00 40 1026.4
20260502102256 66 79 3.0 9.0 0.00 0.00 0.00 39 1026.5
20260502101759 66 74 3.0 9.0 0.00 0.00 0.00 41 1026.6
20260502101544 66 108 2.0 7.0 0.00 0.00 0.00 42 1026.6
20260502100757 65 124 3.0 10.0 0.00 0.00 0.00 41 1026.7
20260502100256 66 115 4.0 10.0 0.00 0.00 0.00 40 1026.7
20260502091250 65 130 4.0 11.0 0.00 0.00 0.00 42 1027.3
20260502090750 65 48 3.0 13.0 0.00 0.00 0.00 43 1027.2
20260502090251 66 58 2.0 13.0 0.00 0.00 0.00 40 1027.3
20260502071220 63 145 2.0 4.0 0.00 0.00 0.00 50 1027.3
20260502070718 63 116 2.0 4.0 0.00 0.00 0.00 54 1027.3
20260502070217 62 120 2.0 4.0 0.00 0.00 0.00 49 1027.3
20260502065717 62 127 2.0 3.0 0.00 0.00 0.00 55 1027.4
20260502065216 62 141 2.0 3.0 0.00 0.00 0.00 53 1027.3
20260502064716 63 141 1.0 4.0 0.00 0.00 0.00 53 1027.4
20260502064215 62 143 1.0 4.0 0.00 0.00 0.00 51 1027.3
20260502063715 62 105 1.0 4.0 0.00 0.00 0.00 52 1027.4
20260502063216 62 102 2.0 4.0 0.00 0.00 0.00 50 1027.4
20260502063004 61 102 2.0 4.0 0.00 0.00 0.00 51 1027.4
20260502062306 61 108 2.0 6.0 0.00 0.00 0.00 52 1027.3
20260502062244 61 123 2.0 6.0 0.00 0.00 0.00 53 1027.4
20260502061214 61 131 1.0 4.0 0.00 0.00 0.00 49 1027.3
20260502060716 61 143 1.0 3.0 0.00 0.00 0.00 51 1027.3
20260502060212 61 143 1.0 3.0 0.00 0.00 0.00 51 1027.4
20260502055710 61 183 1.0 2.0 0.00 0.00 0.00 52 1027.4
20260502055208 61 183 1.0 2.0 0.00 0.00 0.00 55 1027.4
20260502054707 61 183 1.0 2.0 0.00 0.00 0.00 53 1027.5
20260502054208 61 183 1.0 2.0 0.00 0.00 0.00 54 1027.5
20260502053948 61 183 1.0 2.0 0.00 0.00 0.00 51 1027.4
20260502053207 61 183 1.0 2.0 0.00 0.00 0.00 50 1027.4
20260502053017 61 184 0.0 2.0 0.00 0.00 0.00 49 1027.4
20260502052440 61 184 0.0 2.0 0.00 0.00 0.00 51 1027.3
20260502051705 61 184 0.0 1.0 0.00 0.00 0.00 51 1027.3
20260502051204 60 278 0.0 1.0 0.00 0.00 0.00 52 1027.3
20260502050705 59 278 0.0 1.0 0.00 0.00 0.00 51 1027.3
20260502050205 58 278 0.0 1.0 0.00 0.00 0.00 53 1027.3
20260502045701 57 278 0.0 1.0 0.00 0.00 0.00 54 1027.3
20260502045154 56 278 1.0 3.0 0.00 0.00 0.00 54 1027.2
20260502044648 55 278 1.0 3.0 0.00 0.00 0.00 57 1027.2
20260502044137 54 323 2.0 4.0 0.00 0.00 0.00 57 1027.2
20260502043733 54 339 2.0 3.0 0.00 0.00 0.00 57 1027.3
20260502043656 54 302 2.0 4.0 0.00 0.00 0.00 57 1027.3
20260502042635 54 339 2.0 3.0 0.00 0.00 0.00 57 1027.2
20260502042132 54 333 2.0 3.0 0.00 0.00 0.00 57 1027.3
20260502041712 55 349 2.0 3.0 0.00 0.00 0.00 57 1027.3
20260502041655 55 350 2.0 3.0 0.00 0.00 0.00 56 1027.3
20260502040633 55 349 2.0 3.0 0.00 0.00 0.00 56 1027.3
20260502040133 55 335 2.0 3.0 0.00 0.00 0.00 56 1027.2
20260502035633 55 335 2.0 3.0 0.00 0.00 0.00 57 1027.2
20260502035135 55 333 2.0 3.0 0.00 0.00 0.00 57 1027.2
20260502034632 55 330 2.0 3.0 0.00 0.00 0.00 56 1027.2
20260502034134 55 354 2.0 3.0 0.00 0.00 0.00 57 1027.0
20260502033636 55 335 2.0 3.0 0.00 0.00 0.00 58 1027.0
20260502033141 55 335 2.0 3.0 0.00 0.00 0.00 59 1026.9
20260502032635 55 324 2.0 3.0 0.00 0.00 0.00 59 1027.0
20260502032409 55 324 2.0 3.0 0.00 0.00 0.00 60 1027.0
20260502031646 55 322 2.0 3.0 0.00 0.00 0.00 60 1027.0
20260502031409 55 321 2.0 3.0 0.00 0.00 0.00 58 1027.2
20260502030632 55 315 2.0 3.0 0.00 0.00 0.00 59 1027.2
20260502030432 55 333 2.0 3.0 0.00 0.00 0.00 59 1027.2
20260502025917 55 341 2.0 4.0 0.00 0.00 0.00 60 1027.2
20260502025129 55 16 2.0 4.0 0.00 0.00 0.00 58 1027.0
20260502024630 55 343 2.0 3.0 0.00 0.00 0.00 60 1027.0
20260502024130 55 354 2.0 3.0 0.00 0.00 0.00 59 1027.0
20260502023625 55 354 2.0 3.0 0.00 0.00 0.00 59 1027.0
20260502023125 55 354 2.0 3.0 0.00 0.00 0.00 58 1027.0
20260502022916 55 320 2.0 3.0 0.00 0.00 0.00 60 1027.0
20260502022120 55 320 2.0 3.0 0.00 0.00 0.00 59 1027.2
20260502021904 55 332 2.0 3.0 0.00 0.00 0.00 59 1027.2
20260502021115 56 339 2.0 3.0 0.00 0.00 0.00 58 1027.3
20260502020616 56 331 2.0 3.0 0.00 0.00 0.00 58 1027.2
20260502020115 56 335 2.0 3.0 0.00 0.00 0.00 58 1027.2
20260502015613 56 4 2.0 3.0 0.00 0.00 0.00 58 1027.2
20260502015112 56 4 2.0 3.0 0.00 0.00 0.00 56 1027.0
20260502014612 56 354 2.0 3.0 0.00 0.00 0.00 56 1027.0
20260502014109 56 10 2.0 3.0 0.00 0.00 0.00 55 1027.2
20260502013609 56 304 2.0 3.0 0.00 0.00 0.00 55 1027.2
20260502013108 56 303 2.0 3.0 0.00 0.00 0.00 55 1027.2
20260502012606 56 346 2.0 3.0 0.00 0.00 0.00 54 1027.0
20260502012352 56 339 2.0 3.0 0.00 0.00 0.00 52 1027.2
20260502011604 56 338 2.0 3.0 0.00 0.00 0.00 52 1027.0
20260502011114 56 337 1.0 3.0 0.00 0.00 0.00 52 1027.0
20260502010933 56 337 2.0 3.0 0.00 0.00 0.00 52 1027.0
20260502010620 56 337 2.0 3.0 0.00 0.00 0.00 52 1027.2
20260502005605 56 337 2.0 3.0 0.00 0.00 0.00 51 1027.2